Location: Newark
(31.5350°N, 35.0986°E)
Time: 11:19:44
(UTC+00:00)

Courier 1B - Pass Details

Date: 28 September 2019
Orbit: 962 x 1209 km, 28.3° (Epoch: 14 October)

Event Time Altitude Azimuth Distance (km) Brightness Sun altitude
Exits shadow 01:26:24 58° 199° (SSW) 1,121 7.5 -27.1°
Maximum altitude 01:27:04 61° 171° (S) 1,093 7.6 -27.0°
Drops below altitude 10° 01:33:36 10° 93° (E) 2,766 10.8 -25.6°
Sets 01:36:22 0° 89° (E) 3,748 11.8 -25.1°
